Radiation Dose at Monitoring Post of Fukushima Daini Nuclear Power Station
Date,Time,MP-1(microSv/h),MP-2(microSv/h),MP-3(microSv/h),MP-4(microSv/h),MP-5(microSv/h),MP-6(microSv/h),MP-7(microSv/h),Wind Direction,Wind Velocity(m/s),Rain
2015/02/10,00:00,0.526,0.323,-,0.553,0.523,0.253,0.225,west-northwest,6.2,No
2015/02/10,00:10,0.527,0.323,-,0.554,0.523,0.253,0.225,west,9.4,No
2015/02/10,00:20,0.527,0.323,-,0.554,0.524,0.253,0.227,west,9.5,No
2015/02/10,00:30,0.528,0.323,-,0.554,0.524,0.253,0.226,west-northwest,2.3,No
2015/02/10,00:40,0.526,0.323,-,0.553,0.520,0.253,0.227,south-southeast,2.7,No
2015/02/10,00:50,0.524,0.323,-,0.555,0.523,0.252,0.226,southeast,1.1,No
2015/02/10,01:00,0.526,0.323,-,0.555,0.521,0.253,0.226,north,1.9,No
2015/02/10,01:10,0.524,0.323,-,0.555,0.520,0.254,0.226,north,1.1,No
2015/02/10,01:20,0.525,0.322,-,0.555,0.521,0.253,0.226,west-northwest,1.1,No
2015/02/10,01:30,0.525,0.322,-,0.554,0.522,0.253,0.225,-,CALM,No
2015/02/10,01:40,0.525,0.323,-,0.554,0.524,0.253,0.225,west-northwest,2.7,No
2015/02/10,01:50,0.525,0.324,-,0.553,0.523,0.253,0.225,west-northwest,4.0,No
2015/02/10,02:00,0.525,0.322,-,0.553,0.520,0.253,0.227,northwest,4.0,No
2015/02/10,02:10,0.526,0.322,-,0.553,0.521,0.253,0.225,northwest,2.4,No
2015/02/10,02:20,0.527,0.323,-,0.554,0.521,0.253,0.227,west-northwest,2.8,No
2015/02/10,02:30,0.526,0.323,-,0.554,0.521,0.253,0.227,west-northwest,3.1,No
2015/02/10,02:40,0.526,0.322,-,0.554,0.523,0.253,0.227,west-northwest,2.3,No
2015/02/10,02:50,0.524,0.323,-,0.553,0.522,0.253,0.226,west,1.7,No
2015/02/10,03:00,0.526,0.322,-,0.553,0.522,0.253,0.226,west-northwest,2.4,No
2015/02/10,03:10,0.525,0.322,-,0.556,0.520,0.254,0.227,west-southwest,2.0,No
2015/02/10,03:20,0.525,0.322,-,0.555,0.522,0.253,0.227,west,1.4,No
2015/02/10,03:30,0.524,0.322,-,0.554,0.522,0.253,0.226,west,2.7,No
2015/02/10,03:40,0.525,0.322,-,0.554,0.522,0.254,0.226,southwest,1.4,No
2015/02/10,03:50,0.525,0.321,-,0.553,0.522,0.254,0.226,south-southwest,1.9,No
2015/02/10,04:00,0.525,0.323,-,0.554,0.522,0.253,0.226,south-southwest,2.0,No
2015/02/10,04:10,0.525,0.322,-,0.555,0.522,0.254,0.226,south-southwest,2.9,No
2015/02/10,04:20,0.526,0.323,-,0.554,0.521,0.253,0.226,southwest,1.6,No
2015/02/10,04:30,0.526,0.323,-,0.556,0.522,0.253,0.226,southwest,2.8,No
2015/02/10,04:40,0.526,0.323,-,0.555,0.521,0.254,0.226,southwest,2.8,No
2015/02/10,04:50,0.526,0.322,-,0.554,0.522,0.254,0.226,west-southwest,4.0,No
2015/02/10,05:00,0.526,0.323,-,0.554,0.521,0.253,0.226,west-southwest,6.1,No
2015/02/10,05:10,0.526,0.323,-,0.555,0.520,0.254,0.225,west,3.4,No
2015/02/10,05:20,0.526,0.323,-,0.555,0.522,0.253,0.227,west,0.9,No
2015/02/10,05:30,0.526,0.324,-,0.556,0.523,0.254,0.227,-,CALM,No
2015/02/10,05:40,0.524,0.323,-,0.555,0.523,0.253,0.226,west,2.6,No
2015/02/10,05:50,0.527,0.322,-,0.552,0.522,0.253,0.226,west,4.3,No
2015/02/10,06:00,0.524,0.322,-,0.554,0.521,0.254,0.226,northwest,2.2,No
2015/02/10,06:10,0.526,0.321,-,0.555,0.523,0.254,0.227,west,4.9,No
2015/02/10,06:20,0.525,0.322,-,0.554,0.522,0.253,0.226,north-northwest,1.5,No
2015/02/10,06:30,0.527,0.323,-,0.553,0.520,0.254,0.226,northwest,2.0,No
2015/02/10,06:40,0.525,0.322,-,0.554,0.522,0.253,0.226,west-northwest,1.5,No
2015/02/10,06:50,0.524,0.322,-,0.554,0.523,0.254,0.227,west-southwest,0.9,No
2015/02/10,07:00,0.525,0.322,-,0.554,0.521,0.253,0.226,-,CALM,No
2015/02/10,07:10,0.526,0.323,-,0.556,0.523,0.254,0.226,south-southwest,0.6,No
2015/02/10,07:20,0.525,0.324,-,0.553,0.522,0.253,0.226,west-southwest,0.8,No
2015/02/10,07:30,0.525,0.323,-,0.555,0.520,0.254,0.226,west-northwest,2.2,No
2015/02/10,07:40,0.523,0.322,-,0.555,0.520,0.254,0.226,south-southwest,4.2,No
2015/02/10,07:50,0.524,0.323,-,0.553,0.522,0.253,0.225,south-southwest,3.1,No
2015/02/10,08:00,0.523,0.324,-,0.556,0.523,0.253,0.226,south-southwest,2.4,No
2015/02/10,08:10,0.525,0.324,-,0.554,0.522,0.254,0.227,southwest,3.0,No
2015/02/10,08:20,0.525,0.324,-,0.554,0.521,0.254,0.226,south-southwest,2.3,No
2015/02/10,08:30,0.525,0.322,-,0.556,0.521,0.253,0.225,southwest,1.2,No
2015/02/10,08:40,0.525,0.322,-,0.555,0.523,0.253,0.227,south-southwest,2.5,No
2015/02/10,08:50,0.525,0.323,-,0.555,0.524,0.254,0.224,south,4.0,No
2015/02/10,09:00,0.525,0.323,-,0.556,0.522,0.252,0.225,south,3.7,No
2015/02/10,09:10,0.525,0.323,-,0.556,0.520,0.252,0.225,south-southwest,5.1,No
2015/02/10,09:20,0.524,0.322,-,0.555,0.519,0.253,0.225,south-southwest,4.5,No
2015/02/10,09:30,0.525,0.321,-,0.554,0.521,0.254,0.227,southwest,5.0,No
2015/02/10,09:40,0.527,0.322,-,0.555,0.522,0.253,0.227,southwest,5.3,No
2015/02/10,09:50,0.524,0.322,-,0.557,0.522,0.252,0.226,south-southwest,4.2,No
2015/02/10,10:00,0.525,0.321,-,0.554,0.521,0.254,0.225,south-southwest,3.1,No
2015/02/10,10:10,0.525,0.324,-,0.556,0.523,0.254,0.226,south-southwest,3.8,No
2015/02/10,10:20,0.524,0.322,-,0.556,0.522,0.254,0.225,south-southwest,4.2,No
2015/02/10,10:30,0.527,0.321,-,0.557,0.522,0.253,0.227,south-southwest,3.9,No
2015/02/10,10:40,0.528,0.323,-,0.557,0.521,0.254,0.227,south-southwest,5.0,No
2015/02/10,10:50,0.527,0.324,-,0.556,0.524,0.254,0.226,south-southwest,3.3,No
2015/02/10,11:00,0.525,0.323,-,0.555,0.522,0.254,0.228,southwest,3.9,No
2015/02/10,11:10,0.529,0.323,-,0.555,0.524,0.252,0.226,south,1.7,No
2015/02/10,11:20,0.528,0.325,-,0.557,0.524,0.255,0.228,south,2.0,No
2015/02/10,11:30,0.526,0.323,-,0.558,0.523,0.255,0.226,south-southwest,3.4,No
2015/02/10,11:40,0.530,0.324,-,0.556,0.523,0.253,0.228,-,CALM,No
2015/02/10,11:50,0.529,0.324,-,0.557,0.523,0.254,0.226,southwest,3.0,No
2015/02/10,12:00,0.528,0.324,-,0.556,0.522,0.254,0.228,south-southwest,3.6,No
2015/02/10,12:10,0.530,0.323,-,0.557,0.521,0.253,0.226,west-southwest,3.3,No
2015/02/10,12:20,0.528,0.324,-,0.556,0.524,0.253,0.226,south-southwest,1.1,No
2015/02/10,12:30,0.526,0.323,-,0.558,0.525,0.254,0.227,west-southwest,3.2,No
2015/02/10,12:40,0.529,0.323,-,0.557,0.525,0.254,0.227,west-northwest,1.1,No
2015/02/10,12:50,0.528,0.323,-,0.557,0.525,0.253,0.228,west-southwest,3.2,No
2015/02/10,13:00,0.527,0.324,-,0.556,0.525,0.254,0.227,west-southwest,4.1,No
2015/02/10,13:10,0.529,0.325,-,0.556,0.524,0.254,0.226,south-southwest,2.0,No
2015/02/10,13:20,0.532,0.325,-,0.556,0.524,0.254,0.228,southwest,3.0,No
2015/02/10,13:30,0.527,0.324,-,0.555,0.527,0.254,0.226,southwest,2.8,No
2015/02/10,13:40,0.528,0.325,-,0.557,0.524,0.254,0.226,west,4.2,No
2015/02/10,13:50,0.531,0.324,-,0.557,0.525,0.254,0.227,west-southwest,4.2,No
2015/02/10,14:00,0.530,0.322,-,0.556,0.525,0.253,0.226,west,3.8,No
2015/02/10,14:10,0.529,0.326,-,0.556,0.525,0.255,0.226,west-southwest,4.5,No
2015/02/10,14:20,0.530,0.325,-,0.558,0.523,0.254,0.226,west,5.6,No
2015/02/10,14:30,0.531,0.322,-,0.556,0.527,0.255,0.226,west,5.3,No
2015/02/10,14:40,0.530,0.323,-,0.558,0.525,0.253,0.228,northwest,3.1,No
2015/02/10,14:50,0.530,0.324,-,0.557,0.523,0.253,0.228,west,2.5,No
2015/02/10,15:00,0.531,0.322,-,0.558,0.527,0.253,0.226,north-northwest,2.0,No
2015/02/10,15:10,0.530,0.323,-,0.558,0.523,0.254,0.227,north-northwest,1.0,No
2015/02/10,15:20,0.529,0.325,-,0.557,0.523,0.254,0.228,west-northwest,3.4,No
2015/02/10,15:30,0.530,0.326,-,0.558,0.525,0.254,0.228,west,3.9,No
2015/02/10,15:40,0.532,0.325,-,0.558,0.526,0.254,0.227,west-northwest,2.8,No
2015/02/10,15:50,0.528,0.324,-,0.557,0.524,0.254,0.228,west,3.4,No
2015/02/10,16:00,0.531,0.325,-,0.556,0.525,0.255,0.227,west,2.0,No
2015/02/10,16:10,0.530,0.326,-,0.558,0.525,0.254,0.228,west,1.7,No
2015/02/10,16:20,0.531,0.325,-,0.557,0.526,0.252,0.227,west-northwest,2.1,No
2015/02/10,16:30,0.530,0.323,-,0.556,0.524,0.254,0.228,west-southwest,1.4,No
2015/02/10,16:40,0.529,0.324,-,0.557,0.524,0.253,0.227,west-southwest,0.6,No
2015/02/10,16:50,0.530,0.325,-,0.558,0.526,0.254,0.227,northwest,1.0,No
2015/02/10,17:00,0.530,0.325,-,0.555,0.526,0.254,0.227,northwest,0.8,No
2015/02/10,17:10,0.529,0.325,-,0.556,0.523,0.253,0.227,north-northwest,1.7,No
2015/02/10,17:20,0.528,0.324,-,0.556,0.522,0.255,0.227,northwest,1.4,No
2015/02/10,17:30,0.528,0.323,-,0.556,0.525,0.254,0.227,north-northwest,1.2,No
2015/02/10,17:40,0.530,0.324,-,0.557,0.525,0.255,0.227,north-northwest,1.3,No
2015/02/10,17:50,0.529,0.325,-,0.556,0.524,0.256,0.227,north-northwest,0.6,No
2015/02/10,18:00,0.527,0.326,-,0.555,0.523,0.255,0.227,northwest,0.8,No
2015/02/10,18:10,0.528,0.326,-,0.556,0.523,0.255,0.227,west-northwest,0.6,No
2015/02/10,18:20,0.530,0.325,-,0.557,0.527,0.255,0.226,-,CALM,No
2015/02/10,18:30,0.529,0.325,-,0.556,0.525,0.254,0.227,north,1.1,No
2015/02/10,18:40,0.530,0.324,-,0.555,0.527,0.254,0.227,north,1.0,No
2015/02/10,18:50,0.529,0.324,-,0.556,0.524,0.255,0.226,north-northwest,1.4,No
2015/02/10,19:00,0.529,0.323,-,0.556,0.525,0.255,0.227,north-northwest,1.9,No
2015/02/10,19:10,0.529,0.324,-,0.557,0.526,0.254,0.226,north-northwest,2.1,No
2015/02/10,19:20,0.527,0.325,-,0.557,0.526,0.254,0.227,north,1.1,No
2015/02/10,19:30,0.528,0.325,-,0.555,0.523,0.254,0.227,northeast,1.8,No
2015/02/10,19:40,0.527,0.324,-,0.557,0.524,0.255,0.227,north,2.2,No
2015/02/10,19:50,0.528,0.324,-,0.556,0.523,0.254,0.227,northwest,3.1,No
2015/02/10,20:00,0.527,0.324,-,0.557,0.522,0.254,0.226,west-northwest,3.1,No
2015/02/10,20:10,0.529,0.323,-,0.556,0.525,0.254,0.226,west-northwest,1.7,No
2015/02/10,20:20,0.530,0.325,-,0.556,0.526,0.254,0.226,northwest,1.9,No
2015/02/10,20:30,0.530,0.326,-,0.557,0.523,0.254,0.226,west-northwest,2.4,No
2015/02/10,20:40,0.530,0.324,-,0.555,0.524,0.254,0.226,west-northwest,3.3,No
2015/02/10,20:50,0.527,0.326,-,0.555,0.525,0.253,0.227,west-northwest,1.9,No
2015/02/10,21:00,0.527,0.323,-,0.555,0.524,0.253,0.227,west-northwest,1.6,No
2015/02/10,21:10,0.529,0.325,-,0.557,0.522,0.255,0.226,north-northwest,2.3,No
2015/02/10,21:20,0.528,0.324,-,0.556,0.522,0.255,0.227,north-northwest,2.3,No
2015/02/10,21:30,0.529,0.324,-,0.555,0.521,0.255,0.227,north-northwest,2.4,No
2015/02/10,21:40,0.529,0.324,-,0.557,0.525,0.255,0.227,northwest,2.3,No
2015/02/10,21:50,0.529,0.325,-,0.557,0.524,0.254,0.227,north-northwest,2.4,No
2015/02/10,22:00,0.530,0.325,-,0.558,0.525,0.254,0.227,northwest,3.7,No
2015/02/10,22:10,0.530,0.324,-,0.557,0.522,0.256,0.227,west-northwest,5.6,No
2015/02/10,22:20,0.528,0.325,-,0.556,0.523,0.254,0.227,west-northwest,8.0,No
2015/02/10,22:30,0.528,0.325,-,0.557,0.524,0.255,0.228,west-northwest,8.6,No
2015/02/10,22:40,0.529,0.325,-,0.557,0.524,0.254,0.227,west-northwest,10.1,No
2015/02/10,22:50,0.531,0.324,-,0.556,0.524,0.253,0.227,west-northwest,7.6,No
2015/02/10,23:00,0.527,0.325,-,0.556,0.523,0.255,0.227,west-northwest,7.0,No
2015/02/10,23:10,0.530,0.323,-,0.556,0.524,0.254,0.227,west-northwest,7.1,No
2015/02/10,23:20,0.530,0.322,-,0.555,0.525,0.254,0.227,west-northwest,7.7,No
2015/02/10,23:30,0.529,0.324,-,0.555,0.525,0.256,0.227,west-northwest,5.0,No
2015/02/10,23:40,0.530,0.324,-,0.557,0.526,0.255,0.227,west-northwest,5.0,No
2015/02/10,23:50,0.529,0.327,-,0.557,0.525,0.254,0.226,west-northwest,3.6,No
